Regional Weather Roundup
Issued by NWS

Home | Current Version | Previous Version | Text Only | Print | Product List | Glossary On
Versions: 1 2 3 4 5 6 7 8 9 10 11 12 13 14 15 16 17 18 19 20 21 22 23 24 25 26 27 28 29 30 31 32 33 34 35 36 37 38 39 40 41 42 43 44 45 46 47 48 49 50
000
ASUS43 KDMX 222101
RWRIA

WEATHER ROUNDUP FOR IOWA
NATIONAL WEATHER SERVICE DES MOINES IA
400 PM CDT MON MAY 22 2017

NOTE: "FAIR" INDICATES FEW OR NO CLOUDS BELOW 12,000 FEET WITH NO
SIGNIFICANT WEATHER AND/OR OBSTRUCTIONS TO VISIBILITY.

* - THESE STATIONS ARE NOT NWS STATIONS...THUS NOT UNDER NWS
QUALITY CONTROL.  THEY ALSO DO NOT REPORT WEATHER SUCH
AS PRECIPITATION OR FOG.

IAZ001>003-012>014-020>022-031>034-043>046-222200-
   NORTHWEST IOWA

CITY           SKY/WX    TMP DP  RH WIND       PRES   REMARKS
CARROLL *      MOSUNNY   73  46  38 W15       29.84F
CHEROKEE *     PTSUNNY   68  48  49 W9        29.83F
DENISON *      LGT RAIN  70  48  46 SW8       29.86F
LE MARS *      PTSUNNY   64  50  59 W21G30    29.88R
ORANGE CITY *  PTSUNNY   63  55  77 NW18G29   29.86R
SHELDON *      CLOUDY    64  52  63 W22G28      N/A
SIOUX CITY     CLOUDY    66  48  52 NW21G28   29.86R
SPENCER        PTSUNNY   68  47  46 NW7       29.82F
STORM LAKE *     N/A     68  45  42 NW13      29.84F
$$

IAZ055>058-069>071-079>083-090>094-222200-
   SOUTHWEST IOWA

CITY           SKY/WX    TMP DP  RH WIND       PRES   REMARKS
ATLANTIC *     CLOUDY    68  55  64 S17G23    29.87F
AUDUBON *      CLOUDY    72  50  46 SW10G20   29.87F
CLARINDA *     CLOUDY    66  55  68 SW16G22   29.94F
COUNCIL BLFS * CLOUDY    70  54  56 SW18G25   29.87F
CRESTON *      PTSUNNY   66  52  59 SW18G28   29.91F
HARLAN  *      CLOUDY    72  46  40 W13G20    29.89F
LAMONI         CLOUDY    63  56  78 SW14      29.92F
RED OAK *      CLOUDY    70  55  60 SW16      29.89F
SHENANDOAH *   CLOUDY    70  55  60 SW16      29.91F
$$

IAZ047>049-059>061-072>074-084-222200-
   CENTRAL IOWA

CITY           SKY/WX    TMP DP  RH WIND       PRES   REMARKS
AMES           CLOUDY    69  55  60 SW21      29.84F
ANKENY *       MOSUNNY   72  52  49 W12G22    29.86F
BOONE *        CLOUDY    72  48  43 W15G23    29.84F
DES MOINES     CLOUDY    71  56  58 SW17      29.86F
GRINNELL*      PTSUNNY   68  55  63 SW18G24   29.88F
MARSHALLTOWN   CLOUDY    68  56  65 SW17G24   29.84F
NEWTON *       PTSUNNY   68  55  64 SW18G26   29.86F
PELLA *        CLOUDY    67  55  64 SW13G18   29.89F
PERRY *        PTSUNNY   70  51  52 SW20G25   29.85F
$$

IAZ004>006-015-016-023>025-035-036-222200-
   NORTH CENTRAL IOWA

CITY           SKY/WX    TMP DP  RH WIND       PRES   REMARKS
ALGONA *       MOSUNNY   70  48  46 VRB5G13   29.82F
CLARION *      MOSUNNY   72  50  46 W10G18    29.82F
ESTHERVILLE    MOSUNNY   65  47  52 N3        29.82F
FORT DODGE *   CLOUDY    68  48  49 W9        29.84F
MASON CITY     MOSUNNY   69  50  50 VRB5      29.83F
FOREST CITY *    N/A     70  41  35 NW3       29.83F
WEBSTER CITY * CLOUDY    73  46  38 SW14G21   29.81F
IOWA FALLS *   CLOUDY    70  52  53 SW14G23   29.84F
$$

IAZ007>011-017>019-026>030-037>042-050>054-066-222200-
   NORTHEAST IOWA

CITY           SKY/WX    TMP DP  RH WIND       PRES   REMARKS
CEDAR RAPIDS   CLOUDY    67  58  72 SW22G36   29.86S
CHARLES CITY * MOSUNNY   68  52  56 SW8       29.84S
CLINTON *      CLOUDY    67  56  67 SW22G28   29.89F
DECORAH *      PTSUNNY   66  50  55 SW12      29.84S
DUBUQUE        PTSUNNY   67  56  67 SW7       29.85F
MONTICELLO *   CLOUDY    68  55  64 SW12G21   29.85S
OELWEIN *      CLOUDY    70  54  56 W8        29.84F
WATERLOO       CLOUDY    70  51  51 W10       29.82F
$$

IAZ064-065-067-068-078-222200-
   EAST CENTRAL IOWA

CITY           SKY/WX    TMP DP  RH WIND       PRES   REMARKS
DAVENPORT      MOSUNNY   67  54  63 SW22G30   29.91F
IOWA CITY      CLOUDY    67  54  63 SW18G28   29.90F
MT. PLEASANT * RAIN      62  59  92 S15       29.94F
MUSCATINE *    CLOUDY    68  55  64 SW16G29   29.92S
QUAD CITIES    MOSUNNY   68  53  58 SW14G25   29.91S
$$

IAZ062-063-075>077-085>089-095>099-222200-
   SOUTHEAST IOWA

CITY           SKY/WX    TMP DP  RH WIND       PRES   REMARKS
BURLINGTON     HVY RAIN  60  59  96 SW12      29.97R FOG
FAIRFIELD *      N/A     63  55  77 SW16      29.92F
FORT MADISON * LGT RAIN  61  57  88 S8        29.98F
KEOKUK *       CLOUDY    59  57  94 SW9       29.98F
OSKALOOSA *      N/A     64  56  76 SW21      29.90F
OTTUMWA        CLOUDY    64  57  78 SW17G25   29.91F
WASHINGTON *   CLOUDY    64  55  72 SW17G28   29.92F
$$

ABBREVIATIONS USED IN REMARKS
   TC - TEMPERATURES IN CELSIUS
  WCI - WIND CHILL INDEX
   HX - HEAT INDEX
  VSB - VISIBILITY
$$





USA.gov is the U.S. government's official web portal to all federal, state and local government web resources and services.